{"data":{"norad_id":68846,"epoch":"2026-05-25T04:00:03.998880Z","epoch_age_seconds":70904,"freshness":"FRESH","line1":"1 68846U 26094H   26145.16671295 -.00011286  00000+0 -20615-3 0  9994","line2":"2 68846  97.2847 159.8820 0000718 132.7331 342.3511 15.49190380  5677","mean_motion":15.4919038,"eccentricity":7.18e-5,"inclination_deg":97.2847,"raan_deg":159.882,"arg_perigee_deg":132.7331,"mean_anomaly_deg":342.3511,"bstar":-0.00020615,"rev_number":567,"period_min":92.951777818295,"perigee_km":418.60519055311,"apogee_km":419.58127281438,"semimajor_km":6797.2302316837,"source":"CELESTRAK","updated_at":"2026-05-25T13:38:22.047035Z"}}